Location: Unspecified
(42.2730°N, 83.7130°W)
Time: 13:36:50
(UTC+00:00)

Cosmos 1953 Rocket - Pass Details

Date: 14 December 2025
Orbit: 598 x 627 km, 82.5° (Epoch: 17 January)

Event Time Altitude Azimuth Distance (km) Brightness Sun altitude
Rises 22:48:55 0° 358° (N) 2,919 6.8 -8.3°
Reaches altitude 10° 22:51:15 10° 5° (N) 2,009 5.9 -8.7°
Maximum altitude 22:55:31 44° 78° (ENE) 873 3.9 -9.5°
Drops below altitude 10° 22:59:45 10° 151° (SSE) 1,996 6.1 -10.2°
Sets 23:02:04 0° 157° (SSE) 2,897 7.0 -10.6°
